This is the latest recevied weather packets stored in our database for station/object W5GMO. If no packets are shown the sender has not sent any weather packets the latest 10 day(s).
| Time | Temp. | Humidity | Pressure | Rain* | Wind** | Luminosity | Snow |
|---|---|---|---|---|---|---|---|
| 1788045303 | 27.22° C | 1% | 1022 hPa | 0 mm | - | 24 W/m² | - |
| 1788044999 | 27.22° C | 1% | 1022.2 hPa | 0 mm | - | 28 W/m² | - |
| 1788044697 | 27.22° C | 1% | 1022.3 hPa | 0 mm | - | 34 W/m² | - |
| 1788044392 | 27.78° C | 1% | 1022.3 hPa | 0 mm | - | 44 W/m² | - |
| 1788044087 | 27.78° C | 1% | 1022.4 hPa | 0 mm | - | 50 W/m² | - |
| 1788043784 | 28.33° C | 1% | 1022.3 hPa | 0 mm | - | 56 W/m² | - |
| 1788043483 | 28.89° C | 1% | 1022.5 hPa | 0 mm | - | 68 W/m² | - |
| 1788043178 | 28.33° C | 1% | 1022.2 hPa | 0 mm | - | 84 W/m² | - |
| 1788042873 | 28.89° C | 1% | 1022.2 hPa | 0 mm | - | 89 W/m² | - |
| 1788042572 | 28.89° C | 1% | 1022.4 hPa | 0 mm | - | 92 W/m² | - |
| 1788042272 | 28.89° C | 1% | 1021.9 hPa | 0 mm | - | 102 W/m² | - |
| 1788041968 | 28.89° C | 1% | 1022.2 hPa | 0 mm | - | 107 W/m² | - |
| 1788041663 | 29.44° C | 1% | 1022.2 hPa | 0 mm | - | 119 W/m² | - |
| 1788041358 | 29.44° C | 1% | 1022.1 hPa | 0 mm | - | 143 W/m² | - |
| 1788041057 | 30° C | 1% | 1022.2 hPa | 0 mm | - | 158 W/m² | - |
| 1788040756 | 29.44° C | 1% | 1022 hPa | 0 mm | - | 159 W/m² | - |
| 1788040450 | 30° C | 1% | 1022 hPa | 0 mm | - | 165 W/m² | - |
| 1788040148 | 30.56° C | 1% | 1022.2 hPa | 0 mm | - | 175 W/m² | - |
| 1788039846 | 30° C | 1% | 1022.3 hPa | 0 mm | - | 191 W/m² | - |
| 1788039541 | 29.44° C | 1% | 1022.2 hPa | 0 mm | - | 209 W/m² | - |
| 1788039237 | 29.44° C | 1% | 1022.2 hPa | 0 mm | - | 223 W/m² | - |
| 1788038931 | 28.89° C | 1% | 1022.1 hPa | 0 mm | - | 241 W/m² | - |
| 1788038627 | 28.33° C | 1% | 1022.2 hPa | 0 mm | - | 257 W/m² | - |
| 1788038326 | 28.33° C | 1% | 1022.1 hPa | 0 mm | - | 139 W/m² | - |
| 1788038022 | 28.33° C | 1% | 1022.2 hPa | 0 mm | - | 184 W/m² | - |
* Rain latest hour (hover to see other rain measurements)
** Current wind speed in m/s (hover to see current wind gust speed)